Find Starlink 1321

NORAD ID: 45573 Int'l Des: 2020-025 Owner: SPXS Country: US Constellation: starlink operational
LEOCIRCULAR

当前视图

正在加载3D地球...

About Starlink 1321

Starlink 1321 (NORAD 45573) is a starlink constellation satellite (v1.0) launched Apr 22, 2020 by SPXS of US. It operates in LEO, CIRCULAR orbit with a mass of 260.00 kg.

即将过境

Passes for default location (London). Set your location on the main map for personalized predictions.

高度历史

Loading altitude history...

两行轨道根数

1 45573U 20025AU 26246.48293453 .00062763 00000-0 33948-3 0 9995
2 45573 53.0350 266.5109 0006181 29.1021 331.0343 15.79497596353293
Epoch: Sep 3, 2026 • Age: 13 hours

当前状态

高度 346.6 km
远地点 / 近地点 N/A
速度 7.70 km/s
星下点 -34.55°S, 121.33°E
发射日期 Apr 22, 2020
运行时间 6.3 years
类型 internet

技术详情

分类 Payload
质量 260.00 kg
干质量 248.00 kg
总质量 260.00 kg
长度 0.20 m
直径 2.80 m
跨度 9.00 m
形状 Box + pan
制造商 SPXS
平台类型 Starlink
阶段状态 In Orbit
所有者/国家 SPXS/US

Most Searched